TimeCST,TemperatureF,Dew PointF,Humidity,Sea Level PressureIn,VisibilityMPH,Wind Direction,Wind SpeedMPH,Gust SpeedMPH,PrecipitationIn,Events,Conditions,WindDirDegrees,DateUTC
12:15 AM,17.2,10.2,74,30.46,10.0,NNE,6.9,-,N/A,,Clear,30,2013-01-24 06:15:00
12:35 AM,16.5,10.2,76,30.45,10.0,NNE,8.1,-,N/A,,Clear,30,2013-01-24 06:35:00
12:55 AM,16.0,10.2,78,30.46,10.0,NNE,9.2,-,N/A,,Clear,30,2013-01-24 06:55:00
1:15 AM,15.8,10.0,78,30.47,10.0,NNE,5.8,-,N/A,,Clear,30,2013-01-24 07:15:00
1:35 AM,14.9,9.5,79,30.46,10.0,NE,5.8,-,N/A,,Clear,50,2013-01-24 07:35:00
1:55 AM,14.9,9.3,79,30.46,10.0,NE,8.1,-,N/A,,Clear,40,2013-01-24 07:55:00
2:15 AM,14.5,8.8,78,30.46,10.0,NE,5.8,-,N/A,,Clear,50,2013-01-24 08:15:00
2:35 AM,14.0,8.6,79,30.46,10.0,ENE,5.8,-,N/A,,Clear,60,2013-01-24 08:35:00
2:55 AM,13.6,6.8,74,30.46,10.0,ENE,6.9,-,N/A,,Clear,60,2013-01-24 08:55:00
3:15 AM,13.3,5.2,70,30.46,10.0,NE,9.2,-,N/A,,Clear,50,2013-01-24 09:15:00
3:35 AM,12.9,5.0,71,30.45,10.0,ENE,9.2,-,N/A,,Clear,60,2013-01-24 09:35:00
3:55 AM,12.7,4.6,70,30.44,10.0,ENE,9.2,-,N/A,,Clear,60,2013-01-24 09:55:00
4:15 AM,12.2,3.9,69,30.43,10.0,ENE,11.5,17.3,N/A,,Clear,60,2013-01-24 10:15:00
4:35 AM,11.7,4.1,72,30.43,10.0,ENE,8.1,-,N/A,,Clear,70,2013-01-24 10:35:00
4:55 AM,11.1,3.4,71,30.43,10.0,ENE,10.4,-,N/A,,Clear,60,2013-01-24 10:55:00
5:15 AM,10.9,3.6,72,30.44,10.0,ENE,10.4,-,N/A,,Clear,60,2013-01-24 11:15:00
5:35 AM,10.4,3.2,73,30.45,10.0,ENE,6.9,-,N/A,,Clear,60,2013-01-24 11:35:00
5:55 AM,9.9,2.8,73,30.44,10.0,ENE,9.2,-,N/A,,Clear,60,2013-01-24 11:55:00
6:15 AM,9.3,2.1,73,30.45,10.0,ENE,10.4,-,N/A,,Clear,70,2013-01-24 12:15:00
6:35 AM,9.1,2.1,73,30.45,10.0,ENE,10.4,-,N/A,,Clear,60,2013-01-24 12:35:00
6:55 AM,9.0,1.4,71,30.45,10.0,East,11.5,-,N/A,,Clear,80,2013-01-24 12:55:00
7:15 AM,8.4,1.2,73,30.44,10.0,East,10.4,-,N/A,,Clear,80,2013-01-24 13:15:00
7:35 AM,8.1,1.0,73,30.43,10.0,East,10.4,-,N/A,,Clear,100,2013-01-24 13:35:00
7:55 AM,7.7,-0.6,69,30.43,10.0,ENE,6.9,-,N/A,,Clear,70,2013-01-24 13:55:00
8:15 AM,7.7,-0.4,70,30.43,10.0,East,9.2,-,N/A,,Clear,90,2013-01-24 14:15:00
8:35 AM,8.2,-0.6,67,30.44,10.0,East,9.2,-,N/A,,Clear,100,2013-01-24 14:35:00
8:55 AM,8.1,-0.8,67,30.45,10.0,East,6.9,10.4,N/A,,Clear,90,2013-01-24 14:55:00
9:15 AM,8.6,-0.4,67,30.44,10.0,East,10.4,-,N/A,,Clear,80,2013-01-24 15:15:00
9:35 AM,9.5,0.1,66,30.44,10.0,East,5.8,-,N/A,,Clear,90,2013-01-24 15:35:00
9:55 AM,9.9,-0.9,62,30.45,10.0,East,8.1,-,N/A,,Clear,100,2013-01-24 15:55:00
10:15 AM,10.8,-0.4,61,30.44,10.0,ESE,5.8,-,N/A,,Clear,110,2013-01-24 16:15:00
10:35 AM,11.8,-0.0,59,30.43,10.0,ESE,9.2,-,N/A,,Clear,110,2013-01-24 16:35:00
10:55 AM,12.7,-0.0,57,30.42,10.0,ESE,9.2,-,N/A,,Clear,110,2013-01-24 16:55:00
11:15 AM,13.3,0.5,57,30.40,10.0,ESE,9.2,-,N/A,,Clear,120,2013-01-24 17:15:00
11:35 AM,14.9,-0.2,51,30.39,10.0,ESE,6.9,-,N/A,,Clear,110,2013-01-24 17:35:00
11:55 AM,16.7,-0.4,47,30.36,10.0,East,8.1,-,N/A,,Clear,100,2013-01-24 17:55:00
12:15 PM,17.8,-0.9,44,30.36,10.0,ESE,5.8,-,N/A,,Clear,120,2013-01-24 18:15:00
12:35 PM,18.7,-1.1,42,30.34,10.0,SE,8.1,-,N/A,,Clear,140,2013-01-24 18:35:00
12:55 PM,19.9,-2.0,38,30.32,10.0,ESE,8.1,-,N/A,,Clear,120,2013-01-24 18:55:00
1:15 PM,20.8,-1.8,37,30.30,10.0,ESE,5.8,-,N/A,,Clear,120,2013-01-24 19:15:00
1:35 PM,22.3,-2.6,34,30.28,10.0,SSE,8.1,-,N/A,,Clear,150,2013-01-24 19:35:00
1:55 PM,22.1,-2.7,34,30.26,10.0,SE,11.5,-,N/A,,Clear,140,2013-01-24 19:55:00
2:15 PM,22.3,-2.4,34,30.25,10.0,SSE,11.5,-,N/A,,Scattered Clouds,150,2013-01-24 20:15:00
2:35 PM,22.3,-2.4,34,30.23,10.0,SE,10.4,-,N/A,,Mostly Cloudy,140,2013-01-24 20:35:00
2:55 PM,22.6,-1.7,35,30.22,10.0,SSE,8.1,-,N/A,,Overcast,150,2013-01-24 20:55:00
3:15 PM,23.0,-0.9,35,30.21,10.0,SE,9.2,-,N/A,,Overcast,140,2013-01-24 21:15:00
3:35 PM,23.0,-0.9,35,30.22,10.0,SE,6.9,-,N/A,,Overcast,140,2013-01-24 21:35:00
3:55 PM,23.5,-0.4,35,30.21,10.0,SSE,8.1,-,N/A,,Overcast,150,2013-01-24 21:55:00
4:15 PM,23.9,-0.4,35,30.18,10.0,SE,8.1,-,N/A,,Overcast,130,2013-01-24 22:15:00
4:35 PM,24.3,0.1,35,30.17,10.0,SSE,9.2,-,N/A,,Overcast,150,2013-01-24 22:35:00
4:55 PM,24.4,1.0,36,30.16,10.0,SE,8.1,-,N/A,,Overcast,140,2013-01-24 22:55:00
5:35 PM,24.4,0.9,36,30.13,10.0,SE,9.2,-,N/A,,Overcast,130,2013-01-24 23:35:00
5:55 PM,24.8,1.6,37,30.15,10.0,SE,3.5,-,N/A,,Overcast,140,2013-01-24 23:55:00
6:15 PM,25.3,1.4,36,30.15,10.0,South,8.1,-,N/A,,Overcast,170,2013-01-25 00:15:00
6:35 PM,25.7,-0.0,33,30.16,10.0,SSE,8.1,-,N/A,,Overcast,160,2013-01-25 00:35:00
6:55 PM,25.7,-0.0,33,30.16,10.0,South,9.2,-,N/A,,Overcast,170,2013-01-25 00:55:00
7:15 PM,25.5,0.3,34,30.16,10.0,South,8.1,-,N/A,,Overcast,180,2013-01-25 01:15:00
7:35 PM,25.5,1.4,35,30.16,10.0,South,8.1,-,N/A,,Overcast,190,2013-01-25 01:35:00
7:55 PM,25.5,1.8,36,30.16,10.0,South,8.1,-,N/A,,Overcast,190,2013-01-25 01:55:00
8:15 PM,25.3,1.8,36,30.15,10.0,South,9.2,-,N/A,,Overcast,180,2013-01-25 02:15:00
8:35 PM,25.3,2.5,37,30.14,10.0,South,6.9,-,N/A,,Overcast,180,2013-01-25 02:35:00
8:55 PM,25.5,2.8,38,30.14,10.0,South,9.2,-,N/A,,Overcast,180,2013-01-25 02:55:00
9:15 PM,25.5,3.4,39,30.14,10.0,South,4.6,-,N/A,,Overcast,180,2013-01-25 03:15:00
9:35 PM,25.5,3.4,39,30.13,10.0,South,5.8,-,N/A,,Overcast,190,2013-01-25 03:35:00
9:55 PM,25.7,3.7,39,30.14,10.0,SSW,6.9,-,N/A,,Overcast,200,2013-01-25 03:55:00
10:15 PM,25.7,3.9,39,30.15,10.0,South,3.5,-,N/A,,Overcast,170,2013-01-25 04:15:00
10:35 PM,25.7,4.3,40,30.17,10.0,Calm,Calm,-,N/A,,Overcast,0,2013-01-25 04:35:00
10:55 PM,25.7,5.4,42,30.15,10.0,South,3.5,-,N/A,,Overcast,180,2013-01-25 04:55:00
11:15 PM,26.1,5.2,41,30.16,10.0,Calm,Calm,-,N/A,,Overcast,0,2013-01-25 05:15:00
11:35 PM,26.1,5.5,42,30.15,10.0,Calm,Calm,-,N/A,,Overcast,0,2013-01-25 05:35:00
11:55 PM,25.7,5.7,43,30.16,10.0,Calm,Calm,-,N/A,,Overcast,0,2013-01-25 05:55:00